Flag for Ecuador Weather past 2 weeks in Quito, Ecuador

Now
46 °F

Overcast.


Feels Like: 46 °F
Forecast: 46 / 69 °F
Wind: 2 mph from Southeast

Location: Latacunga Airport

Current Time: Sep 3, 2015 at 2:24:31 AM

Latest Report: Sep 3, 2015 at 2:00 AM


Visibility: N/A

Pressure: 30.48 "Hg (21.62 "Hg at 2826m altitude)

Humidity: 100%

Dew point: 46 °F

Location of QuitoLocation

Historic Weather in Quito — Graph

°F

Quito temperature yesterday

Maximum temperature yesterday: 63 °F (at 4:00 PM)
Minimum temperature yesterday: 45 °F (at 10:00 PM)
Average temperature yesterday: 53 °F

Past Weeks' High & Low Weather Summary

 TemperatureHumidityPressure
High72 °F (Aug 22, 1:00 PM)100% (Aug 19, 1:00 AM)30.51 "Hg (Aug 19, 1:00 AM)
Low39 °F (Aug 22, 7:00 AM)35% (Aug 22, 2:00 PM)30.30 "Hg (Aug 22, 4:00 PM)
Average54 °F84%30.42 "Hg
* Reported Aug 19 1:00 AM — Sep 3 1:00 AM, Quito, Weather by CustomWeather, © 2015

Note: Actual official high and low records may vary slightly from our data, if they occured in-between our weather recording intervals... More about our weather records

Advertising

Quito weather history for previous 24 hours

 ConditionsComfort  
Time TempWeatherWind HumidityBarometerVisibility
1:00 AM
Thu, Sep 3
46 °FOvercast.3 mph100%30.48 "HgN/A
12:00 AM43 °FPassing clouds.2 mph100%30.48 "HgN/A
11:00 PM
Wed, Sep 2
45 °FPassing clouds.1 mph100%30.51 "HgN/A
10:00 PM45 °FSmoke.3 mph100%30.48 "HgN/A
9:00 PM48 °FSmoke.6 mph94%30.48 "HgN/A
7:00 PM54 °FPassing clouds.12 mph77%30.42 "HgN/A
5:00 PM59 °FBroken clouds.15 mph63%30.42 "HgN/A
4:00 PM63 °FBroken clouds.20 mph56%30.42 "HgN/A
3:00 PM59 °FScattered showers. Partly sunny.20 mph68%30.45 "HgN/A
2:00 PM59 °FScattered showers. Partly sunny.23 mph72%30.48 "HgN/A
1:00 PM59 °FScattered showers. Partly sunny.21 mph72%30.48 "HgN/A
12:00 PM61 °FPartly sunny.20 mph63%30.51 "HgN/A
11:00 AM57 °FPartly sunny.17 mph77%30.51 "HgN/A
10:00 AM55 °FScattered clouds.20 mph82%30.51 "HgN/A
9:00 AM57 °FScattered clouds.17 mph77%30.51 "HgN/A
8:00 AM54 °FScattered clouds.15 mph94%30.51 "HgN/A
7:00 AM50 °FScattered clouds.14 mph100%30.48 "HgN/A
6:00 AM50 °FPartly cloudy.15 mph100%30.48 "HgN/A
5:00 AM50 °FPartly cloudy.9 mph100%30.45 "HgN/A
4:00 AM50 °FPartly cloudy.7 mph100%30.45 "HgN/A
3:00 AM50 °FPassing clouds.6 mph100%30.45 "HgN/A
2:00 AM50 °FPassing clouds.8 mph100%30.48 "HgN/A
Weather by CustomWeather, © 2015

See weather overviewHow to use our weather pages